Ignacio, CO

3:40 AM MDT on August 26, 2016 (GMT -0600)
Durango-La Plata County

Weather History for KDRO - January, 2012

Change the Weather History Date:

Sunday, January 22, 2012

  Actual Average Record
Temperature  
Mean Temperature 25 °F 24 °F  
Max Temperature 37 °F 38 °F 62 °F (1970)
Min Temperature 13 °F 10 °F -8 °F (1987)
Degree Days  
Heating Degree Days 40 41  
Month to date heating degree days 824 919  
Since 1 July heating degree days 3521 3793  
Cooling Degree Days 0 0  
Month to date cooling degree days 0  
Year to date cooling degree days 0  
Moisture  
Dew Point 18 °F    
Average Humidity 68    
Maximum Humidity 92    
Minimum Humidity 44    
Precipitation  
Precipitation 0.01 in 0.04 in 0.01 in (2012)
Month to date precipitation 0.46 0.82  
Year to date precipitation 0.46 0.82  
Sea Level Pressure  
Sea Level Pressure 29.82 in    
Wind  
Wind Speed 13 mph (WSW)    
Max Wind Speed 24 mph    
Max Gust Speed 32 mph    
Visibility 6 miles    
Events Snow    
T = Trace of Precipitation, MM = Missing Value Source: NWS Daily Summary

Daily Weather History Graph

Daily Weather History Graph

Search for Another Location

Airport or City:

Trip Planner

Search our weather history database for the weather conditions in past years. The results will help you decide how hot, cold, wet, or windy it might be!

Date:

Astronomy

Jan. 22, 2012 Rise Set
Actual Time 7:20 AM MST 5:24 PM MST
Civil Twilight 6:52 AM MST 5:52 PM MST
Nautical Twilight 6:21 AM MST 6:24 PM MST
Astronomical Twilight 5:50 AM MST 6:55 PM MST
Moon 6:39 AM MST (1/22) 5:09 PM MST (1/22)
Length of Visible Light 10h 59m
Length of Day
10h 03m
Waning Crescent, 0% of the Moon is Illuminated
Jan 22
Waning Crescent
Jan 23
New
Jan 30
First Quarter
Feb 7
Full
Feb 14
Last Quarter

Hourly Weather History & Observations

Time (MST) Temp. Windchill Dew Point Humidity Pressure Visibility Wind Dir Wind Speed Gust Speed Precip Events Conditions
12:22 AM 30.2 °F 20.8 °F - N/A% 29.62 in 9.0 mi SSW 11.5 mph - 0.00 in Snow Light Snow
12:37 AM 30.2 °F 19.8 °F - N/A% 29.62 in 10.0 mi SW 13.8 mph 20.7 mph 0.00 in   Overcast
12:53 AM 30.0 °F 17.5 °F - N/A% 29.67 in 7.0 mi WSW 19.6 mph 23.0 mph 0.00 in Snow Light Snow
1:35 AM 28.4 °F 15.4 °F - N/A% 29.63 in 1.8 mi WSW 19.6 mph 32.2 mph 0.00 in Snow Light Snow
1:41 AM 28.4 °F 15.4 °F - N/A% 29.63 in 0.8 mi WSW 19.6 mph 32.2 mph 0.00 in Snow Light Snow
1:53 AM 27.0 °F 13.9 °F - N/A% 29.68 in 0.5 mi WSW 18.4 mph 26.5 mph 0.01 in Snow Snow
1:59 AM 26.6 °F 13.8 °F - N/A% 29.63 in 1.0 mi WSW 17.3 mph 27.6 mph 0.00 in Snow Light Snow
2:08 AM 28.4 °F 17.5 °F - N/A% 29.63 in 1.8 mi WSW 13.8 mph - 0.00 in Snow Light Snow
2:15 AM 26.6 °F 14.3 °F - N/A% 29.62 in 2.0 mi SW 16.1 mph - 0.00 in Snow Light Snow
2:32 AM 28.4 °F 18.0 °F - N/A% 29.64 in 4.0 mi WSW 12.7 mph - 0.00 in Snow Light Snow
2:51 AM 28.4 °F 18.0 °F - N/A% 29.65 in 4.0 mi West 12.7 mph - 0.00 in Snow Light Snow
2:53 AM 28.0 °F 16.5 °F - N/A% 29.69 in 4.0 mi WSW 15.0 mph - 0.00 in Snow Light Snow
3:00 AM 28.4 °F 18.5 °F - N/A% 29.64 in 2.0 mi WSW 11.5 mph - 0.00 in Snow Light Snow
3:05 AM 28.4 °F 18.5 °F - N/A% 29.64 in 1.2 mi WSW 11.5 mph - 0.00 in Snow Light Snow
3:20 AM 26.6 °F 15.2 °F - N/A% 29.65 in 1.2 mi WSW 13.8 mph - 0.00 in Snow Light Snow
3:32 AM 28.4 °F 16.2 °F - N/A% 29.65 in 1.5 mi WSW 17.3 mph - 0.00 in Snow Light Snow
3:43 AM 28.4 °F 17.0 °F - N/A% 29.64 in 1.5 mi WSW 15.0 mph - 0.00 in Snow Light Snow
3:53 AM 28.0 °F 16.1 °F - N/A% 29.68 in 2.0 mi WSW 16.1 mph - 0.00 in Snow Light Snow
3:58 AM 28.4 °F 15.4 °F - N/A% 29.63 in 3.0 mi WSW 19.6 mph 25.3 mph 0.00 in Snow Light Snow
4:53 AM 28.0 °F 14.6 °F - N/A% 29.72 in 6.0 mi WSW 20.7 mph 27.6 mph 0.00 in Snow Light Snow
5:11 AM 28.4 °F 15.1 °F 28.4 °F 100% 29.68 in 8.0 mi WSW 20.7 mph 28.8 mph 0.00 in   Partly Cloudy
5:53 AM 28.0 °F 14.3 °F 26.1 °F 92% 29.75 in 10.0 mi West 21.9 mph 25.3 mph 0.00 in   Clear
6:53 AM 28.9 °F 18.2 °F 21.0 °F 72% 29.81 in 10.0 mi WNW 13.8 mph - N/A   Clear
7:53 AM 27.0 °F 15.2 °F 19.9 °F 75% 29.86 in 10.0 mi WSW 15.0 mph - N/A   Clear
9:53 AM 32.0 °F 24.2 °F 16.0 °F 52% 29.93 in 10.0 mi WSW 9.2 mph - N/A   Clear
10:53 AM 33.1 °F 24.4 °F 18.0 °F 54% 29.93 in 10.0 mi WSW 11.5 mph - N/A   Clear
11:53 AM 36.0 °F 28.0 °F 18.0 °F 48% 29.92 in 10.0 mi WSW 11.5 mph - N/A   Clear
12:53 PM 35.1 °F 25.9 °F 19.9 °F 54% 29.92 in 10.0 mi SW 13.8 mph - N/A   Clear
1:53 PM 36.0 °F 26.0 °F 18.0 °F 48% 29.94 in 10.0 mi WSW 17.3 mph - N/A   Clear
2:53 PM 34.0 °F 22.4 °F 15.1 °F 46% 29.98 in 10.0 mi WSW 20.7 mph - N/A   Clear
3:53 PM 35.1 °F 24.5 °F 15.1 °F 44% 30.01 in 10.0 mi WSW 18.4 mph - N/A   Clear
4:53 PM 33.1 °F 23.9 °F 17.1 °F 52% 30.06 in 10.0 mi SW 12.7 mph - N/A   Clear
5:53 PM 28.0 °F 18.1 °F 17.1 °F 63% 30.12 in 10.0 mi SW 11.5 mph - N/A   Clear
6:53 PM 26.1 °F 16.8 °F 16.0 °F 66% 30.17 in 10.0 mi SW 9.2 mph - N/A   Clear
7:53 PM 23.0 °F - 15.1 °F 72% 30.21 in 10.0 mi Calm Calm - N/A   Clear
8:53 PM 19.9 °F 13.4 °F 14.0 °F 78% 30.23 in 10.0 mi NNE 4.6 mph - N/A   Clear
9:53 PM 19.9 °F 13.4 °F 14.0 °F 78% 30.21 in 10.0 mi North 4.6 mph - N/A   Clear
10:53 PM 19.0 °F - 12.9 °F 77% 30.23 in 10.0 mi Calm Calm - N/A   Clear
11:53 PM 16.0 °F 10.4 °F 12.0 °F 84% 30.21 in 10.0 mi ENE 3.5 mph - N/A   Clear